User: anonymous   Login
Location: ??????
(41.3164°N, 22.6615°E)
Time: 01:19:30
(UTC+00:00)
Language:

YAOGAN 1 - Orbit

View from above orbital plane
View from above orbital plane
View from above satellite
View from above satellite

Ground track
Ground track

The orbit data is extracted from the following two-line orbital elements,

1 29092U 06015A   23030.50068146  .00000788  00000-0  10160-3 0  9996
2 29092  97.8537  60.0269 0001428  90.9270 269.2108 14.83760195906601
Epoch (UTC): 30 January 2023 12:00:58
Eccentricity: 0.0001428
inclination: 97.8537°
perigee height: 616 km
apogee height: 618 km
right ascension of ascending node: 60.0269°
argument of perigee: 90.9270°
revolutions per day: 14.83760195
mean anomaly at epoch: 269.2108°
orbit number at epoch: 90660

The dashed part of the orbit path shows where the satellite is in the earth's shadow,  

DLR